Flag for Germany Weather past 2 weeks in Gerolstein, Rhineland-Palatinate, Germany

Now
53 °F

Overcast.


Feels Like: 51 °F
Forecast: 38 / 57 °F
Wind: 7 mph from Northwest

Location: Nuerburg-Barweiler

Current Time: Sep 22, 2014 at 2:54:37 PM

Latest Report: Sep 22, 2014 at 2:00 PM


Visibility: 11 mi

Pressure: 30.09 "Hg

Humidity: 70%

Dew point: 44 °F

Location of GerolsteinLocation

Historic Weather in Gerolstein — Graph

°F

Gerolstein temperature yesterday

Maximum temperature yesterday: 59 °F (at 12:00 AM)
Minimum temperature yesterday: 51 °F (at 10:00 PM)
Average temperature yesterday: 56 °F

Past Weeks' High & Low Weather Summary

 TemperatureHumidityPressure
High74 °F (Sep 18, 3:00 PM)100% (Sep 8, 8:00 AM)30.24 "Hg (Sep 8, 8:00 AM)
Low43 °F (Sep 12, 7:00 AM)55% (Sep 17, 4:00 PM)29.80 "Hg (Sep 18, 5:00 PM)
Average58 °F87%30.03 "Hg
* Reported Sep 7 1:00 PM — Sep 22 1:00 PM, Gerolstein, Weather by CustomWeather, © 2014

Note: Actual official high and low records may vary slightly from our data, if they occured in-between our weather recording intervals... More about our weather records

Advertising

Gerolstein weather history for previous 24 hours

 ConditionsComfort  
Time TempWeatherWind HumidityBarometerVisibility
1:00 PM
Sep 22
53 °FOvercast.7 mph76%30.10 "Hg12 mi
12:00 PM51 °FOvercast.5 mph83%30.13 "Hg12 mi
11:00 AM51 °FOvercast.6 mph82%30.14 "Hg11 mi
10:00 AM49 °FOvercast.5 mph88%30.14 "Hg10 mi
9:00 AM49 °FPartly sunny.5 mph89%30.14 "Hg9 mi
8:00 AM47 °FScattered clouds.6 mph91%30.15 "Hg9 mi
7:00 AM47 °FPassing clouds.5 mph93%30.14 "Hg8 mi
6:00 AM48 °FPassing clouds.3 mph97%30.14 "Hg7 mi
5:00 AM49 °FLow clouds.5 mph97%30.14 "Hg3 mi
4:00 AM49 °FRain. Low clouds.5 mph96%30.15 "Hg1 mi
3:00 AM49 °FLow clouds.2 mph95%30.15 "Hg6 mi
2:00 AM49 °FFog.5 mph95%30.15 "Hg4 mi
1:00 AM49 °FFog.3 mph96%30.15 "Hg3 mi
12:00 AM50 °FFog.5 mph94%30.14 "Hg4 mi
10:00 PM
Sep 21
51 °FClear.7 mph87%30.13 "Hg7 mi
9:00 PM51 °FPassing clouds.6 mph88%30.11 "Hg12 mi
8:00 PM52 °FPassing clouds.5 mph91%30.08 "Hg17 mi
7:00 PM54 °FPassing clouds.3 mph90%30.06 "Hg19 mi
6:00 PM55 °FPassing clouds.7 mph87%30.05 "Hg18 mi
5:00 PM55 °FPartly sunny.6 mph89%30.04 "Hg16 mi
4:00 PM55 °FLow clouds.7 mph94%30.03 "Hg13 mi
3:00 PM55 °FLow clouds.6 mph97%30.03 "Hg9 mi
2:00 PM56 °FRain. Low clouds.5 mph97%30.02 "Hg4 mi
Weather by CustomWeather, © 2014

See weather overviewHow to use our weather pages